Temp
-5 -5 -5 -5 -5 -5 -5 -5 -5 -5 -4 -4 -4 -4 -4 -5 -5 -5 -5 -5 -5 -5 -5 -5 -5 -5 -5 -5 -4 -4 -4 -4 -4 -4 -4 -4 -5 -4 -4 -5 -5 -4 -6 -5 -6
-5 -5 -5 -5 -5 -5 -5 -5 -5 -5 -5 -5 -4 -4 -5 -5 -5 -5 -5 -6 -6 -6 -6 -6 -5 -5 -5 -5 -5 -4 -4 -4 -4 -4 -4 -4 -4 -4 -5 -5 -5 -5 -6 -6 -5
-5 -5 -5 -5 -5 -5 -5 -5 -5 -5 -5 -5 -5 -5 -5 -5 -5 -5 -5 -5 -6 -6 -6 -6 -5 -5 -5 -5 -5 -5 -4 -4 -4 -3 -4 -4 -5 -5 -5 -5 -5 -5 -7 -6 -6
-5 -5 -5 -5 -5 -5 -5 -6 -5 -5 -6 -6 -6 -5 -5 -6 -5 -5 -5 -5 -6 -6 -6 -6 -6 -6 -6 -6 -5 -5 -5 -5 -5 -5 -4 -5 -5 -5 -5 -4 -5 -6 -5 -5 -6
-5 -5 -5 -5 -5 -5 -5 -6 -6 -6 -6 -6 -6 -6 -6 -6 -5 -6 -6 -6 -6 -6 -6 -6 -6 -6 -6 -6 -6 -5 -5 -5 -5 -5 -5 -4 -5 -4 -5 -5 -5 -5 -5 -6 -5
-6 -6 -6 -6 -6 -6 -6 -6 -6 -6 -6 -6 -6 -6 -6 -6 -6 -6 -6 -6 -6 -6 -6 -6 -6 -6 -7 -7 -6 -5 -5 -5 -5 -5 -5 -5 -5 -5 -5 -5 -6 -5 -5 -6 -6
-7 -7 -7 -7 -7 -7 -7 -7 -7 -7 -7 -7 -7 -7 -6 -6 -6 -6 -6 -6 -6 -6 -6 -6 -6 -6 -6 -6 -6 -6 -6 -6 -6 -6 -6 -5 -5 -4 -4 -5 -5 -5 -6 -5 -6
-7 -7 -7 -7 -8 -8 -7 -7 -7 -7 -8 -8 -8 -8 -7 -7 -7 -7 -7 -7 -7 -7 -6 -6 -6 -6 -6 -6 -6 -6 -7 -7 -6 -6 -6 -6 -5 -5 -6 -5 -5 -5 -5 -5 -6
-7 -7 -7 -8 -9 -8 -7 -7 -8 -8 -8 -9 -8 -8 -8 -8 -8 -7 -7 -7 -7 -7 -6 -6 -6 -6 -6 -6 -6 -6 -7 -7 -7 -7 -7 -6 -5 -5 -5 -6 -5 -6 -6 -5 -6
-8 -8 -8 -10 -10 -10 -9 -9 -9 -9 -9 -9 -9 -9 -8 -8 -8 -8 -8 -7 -7 -7 -7 -7 -7 -7 -6 -6 -6 -6 -7 -7 -7 -7 -6 -6 -5 -5 -5 -5 -6 -6 -7 -6 -6
-9 -10 -11 -11 -12 -12 -11 -11 -11 -11 -10 -10 -9 -9 -9 -9 -8 -8 -8 -8 -8 -7 -7 -7 -7 -7 -7 -7 -7 -7 -7 -7 -7 -7 -7 -6 -5 -5 -4 -5 -5 -5 -6 -6 -6
-11 -12 -12 -12 -12 -13 -13 -13 -13 -12 -12 -11 -11 -10 -9 -9 -9 -9 -8 -8 -8 -8 -8 -7 -7 -8 -8 -7 -7 -7 -7 -8 -8 -7 -7 -6 -6 -5 -4 -4 -4 -5 -6 -6 -5
-12 -13 -13 -13 -13 -13 -14 -14 -13 -14 -13 -13 -12 -11 -10 -10 -10 -9 -9 -9 -8 -8 -8 -8 -8 -8 -8 -8 -7 -7 -7 -8 -8 -7 -7 -6 -7 -6 -6 -4 -4 -5 -6 -6 -6
-13 -13 -13 -13 -14 -14 -16 -15 -14 -15 -14 -13 -13 -12 -11 -11 -10 -9 -9 -9 -9 -8 -8 -8 -8 -8 -8 -8 -8 -8 -8 -8 -8 -7 -6 -7 -7 -7 -7 -6 -5 -6 -6 -5 -6
-14 -14 -14 -14 -15 -17 -17 -15 -15 -16 -15 -14 -13 -13 -12 -11 -11 -10 -10 -9 -9 -9 -8 -8 -8 -8 -8 -8 -8 -8 -9 -8 -8 -8 -7 -7 -7 -7 -6 -6 -7 -7 -6 -5 -6
-14 -14 -14 -15 -16 -16 -16 -16 -16 -15 -15 -15 -14 -13 -13 -12 -11 -11 -10 -10 -9 -9 -9 -9 -9 -9 -9 -8 -9 -9 -8 -8 -8 -8 -7 -7 -7 -7 -7 -7 -6 -7 -6 -5 -5
-14 -14 -15 -15 -16 -17 -17 -16 -16 -15 -15 -15 -15 -15 -14 -13 -12 -11 -11 -10 -10 -9 -9 -9 -9 -9 -9 -8 -9 -9 -9 -9 -9 -9 -8 -8 -7 -7 -7 -7 -6 -6 -6 -6 -6
-15 -15 -15 -16 -16 -17 -17 -16 -16 -16 -16 -16 -15 -15 -15 -14 -13 -12 -12 -11 -10 -9 -10 -9 -9 -9 -9 -9 -9 -9 -9 -9 -9 -9 -9 -8 -8 -7 -7 -7 -7 -7 -6 -6 -6
-15 -15 -15 -16 -17 -17 -17 -18 -17 -16 -16 -16 -15 -15 -15 -15 -13 -12 -12 -11 -11 -10 -10 -10 -9 -9 -9 -9 -9 -9 -9 -9 -9 -9 -9 -9 -8 -7 -8 -8 -8 -7 -7 -7 -7
-15 -15 -15 -16 -17 -18 -18 -18 -17 -16 -16 -16 -16 -15 -15 -15 -14 -13 -12 -12 -11 -11 -11 -11 -10 -10 -9 -10 -10 -10 -10 -10 -10 -9 -9 -9 -9 -8 -7 -8 -8 -8 -7 -7 -8
-15 -16 -16 -16 -17 -18 -18 -17 -17 -17 -17 -16 -16 -16 -16 -15 -15 -14 -13 -12 -12 -11 -11 -12 -11 -11 -10 -10 -10 -10 -10 -10 -10 -10 -10 -9 -9 -8 -8 -8 -8 -8 -8 -8 -8
-16 -16 -16 -16 -16 -17 -18 -17 -17 -17 -17 -17 -17 -17 -17 -16 -16 -14 -14 -13 -13 -13 -12 -13 -13 -12 -12 -11 -11 -10 -10 -10 -10 -9 -10 -10 -9 -8 -8 -8 -8 -8 -8 -8 -8
-16 -16 -16 -16 -16 -16 -17 -16 -16 -16 -17 -17 -16 -17 -17 -16 -16 -16 -15 -15 -15 -15 -14 -15 -14 -14 -13 -12 -12 -11 -11 -11 -10 -10 -9 -9 -9 -9 -8 -8 -8 -8 -7 -7 -8
-16 -16 -16 -16 -16 -16 -16 -16 -16 -16 -16 -16 -17 -16 -16 -16 -15 -15 -15 -16 -16 -16 -16 -16 -15 -14 -13 -12 -12 -11 -11 -11 -10 -10 -9 -9 -9 -8 -9 -9 -9 -8 -8 -7 -7
-16 -16 -16 -16 -16 -16 -16 -16 -16 -16 -16 -16 -16 -16 -16 -16 -15 -15 -15 -15 -15 -15 -15 -16 -15 -13 -12 -12 -12 -11 -11 -11 -11 -11 -10 -9 -10 -9 -9 -9 -9 -9 -9 -8 -7
-16 -17 -16 -16 -17 -17 -17 -17 -16 -16 -16 -16 -16 -16 -16 -16 -15 -15 -15 -14 -14 -14 -14 -14 -14 -14 -13 -13 -13 -12 -12 -12 -12 -11 -11 -10 -10 -11 -10 -9 -10 -10 -10 -10 -9
-16 -17 -17 -17 -17 -17 -17 -17 -17 -17 -16 -16 -16 -16 -16 -15 -15 -15 -15 -14 -14 -14 -15 -14 -14 -14 -14 -14 -13 -13 -13 -13 -13 -13 -13 -12 -11 -11 -11 -11 -10 -10 -10 -10 -10
Height
5847 5847 5846 5846 5845 5845 5846 5846 5847 5847 5848 5849 5850 5851 5852 5854 5855 5856 5858 5861 5863 5866 5869 5872 5875 5877 5878 5880 5882 5883 5885 5887 5887 5886 5886 5885 5885 5881 5885 5890 5893 5897 5898 5900 5900
5844 5843 5843 5842 5842 5841 5841 5842 5843 5844 5844 5845 5847 5848 5849 5850 5852 5855 5857 5857 5860 5863 5866 5869 5873 5876 5878 5878 5880 5882 5884 5886 5886 5888 5888 5888 5886 5887 5889 5891 5894 5896 5897 5901 5900
5839 5838 5838 5837 5837 5837 5837 5837 5837 5838 5840 5841 5842 5843 5845 5846 5848 5851 5852 5854 5857 5860 5864 5868 5871 5875 5877 5877 5879 5879 5883 5886 5886 5887 5888 5889 5889 5890 5890 5892 5893 5895 5897 5900 5900
5833 5831 5831 5830 5830 5830 5831 5831 5831 5833 5834 5836 5837 5838 5840 5842 5845 5847 5848 5850 5854 5857 5861 5865 5868 5872 5873 5876 5877 5877 5882 5885 5888 5888 5889 5889 5889 5889 5889 5891 5894 5896 5897 5899 5901
5826 5824 5823 5822 5821 5821 5822 5824 5825 5826 5827 5829 5832 5833 5834 5836 5839 5842 5844 5846 5849 5853 5857 5860 5864 5867 5868 5872 5875 5875 5882 5883 5886 5888 5890 5890 5888 5887 5888 5891 5892 5894 5897 5900 5901
5816 5814 5813 5813 5812 5812 5813 5814 5816 5818 5820 5821 5824 5826 5829 5831 5833 5836 5839 5843 5845 5848 5852 5856 5859 5861 5864 5868 5871 5875 5881 5882 5884 5885 5887 5889 5888 5888 5888 5891 5893 5894 5895 5898 5901
5807 5805 5803 5803 5803 5803 5803 5804 5806 5807 5812 5814 5816 5819 5821 5825 5827 5831 5834 5838 5840 5843 5846 5849 5854 5860 5864 5866 5869 5874 5879 5880 5882 5883 5886 5887 5886 5888 5888 5889 5893 5894 5895 5899 5902
5796 5795 5794 5792 5792 5792 5793 5794 5795 5797 5801 5805 5808 5810 5814 5818 5820 5825 5828 5831 5835 5838 5841 5846 5851 5855 5859 5865 5869 5872 5875 5877 5880 5882 5885 5886 5885 5887 5886 5884 5888 5892 5895 5898 5900
5786 5783 5780 5779 5778 5779 5780 5781 5783 5786 5790 5794 5799 5803 5807 5810 5813 5818 5821 5825 5829 5832 5837 5842 5846 5851 5857 5862 5867 5870 5872 5874 5876 5879 5884 5886 5885 5885 5886 5886 5888 5892 5896 5899 5900
5775 5772 5769 5767 5767 5766 5766 5765 5767 5772 5778 5782 5788 5795 5800 5802 5806 5811 5816 5819 5822 5826 5833 5839 5843 5848 5853 5859 5863 5867 5869 5871 5873 5877 5881 5884 5884 5885 5885 5887 5890 5894 5896 5899 5901
5767 5763 5760 5758 5756 5755 5755 5754 5756 5760 5765 5770 5778 5782 5788 5794 5799 5804 5809 5814 5817 5822 5828 5835 5840 5846 5848 5852 5856 5861 5865 5868 5870 5873 5879 5881 5883 5884 5885 5887 5891 5893 5896 5897 5899
5759 5757 5754 5750 5747 5745 5744 5743 5743 5748 5754 5759 5766 5772 5779 5787 5791 5796 5803 5809 5813 5817 5823 5830 5837 5839 5842 5846 5850 5854 5859 5863 5867 5870 5875 5878 5882 5886 5887 5886 5887 5891 5894 5895 5898
5753 5750 5746 5741 5736 5732 5730 5731 5733 5735 5741 5749 5756 5763 5770 5777 5783 5788 5796 5801 5807 5813 5819 5826 5831 5832 5837 5841 5845 5851 5855 5858 5862 5866 5871 5876 5881 5885 5887 5888 5888 5888 5892 5895 5897
5748 5743 5738 5732 5725 5715 5713 5718 5721 5725 5732 5742 5749 5756 5762 5768 5776 5782 5788 5795 5801 5807 5813 5819 5822 5827 5832 5838 5843 5848 5852 5853 5855 5863 5868 5873 5879 5881 5885 5887 5887 5889 5890 5893 5895
5743 5737 5732 5723 5714 5706 5706 5710 5714 5721 5727 5734 5741 5748 5755 5762 5770 5775 5782 5789 5794 5801 5809 5815 5817 5823 5829 5836 5840 5844 5844 5847 5851 5856 5865 5870 5876 5880 5884 5886 5886 5887 5889 5892 5893
5739 5734 5727 5719 5711 5707 5706 5708 5712 5718 5721 5728 5735 5743 5750 5757 5764 5770 5776 5782 5788 5795 5802 5806 5812 5818 5824 5828 5835 5836 5841 5844 5847 5852 5860 5865 5872 5876 5881 5881 5881 5883 5885 5888 5891
5736 5731 5724 5716 5711 5707 5706 5708 5712 5714 5720 5726 5731 5739 5746 5752 5758 5763 5769 5776 5783 5790 5796 5801 5806 5813 5818 5823 5827 5832 5837 5839 5844 5848 5855 5861 5867 5871 5876 5877 5878 5880 5882 5882 5888
5735 5731 5723 5715 5711 5708 5707 5709 5711 5716 5720 5725 5730 5735 5742 5746 5751 5759 5766 5772 5778 5785 5789 5795 5801 5807 5811 5817 5824 5828 5832 5837 5838 5842 5851 5857 5861 5866 5870 5873 5877 5879 5882 5885 5885
5735 5731 5723 5716 5711 5709 5708 5710 5711 5716 5720 5725 5729 5733 5738 5743 5750 5755 5761 5767 5773 5779 5785 5788 5794 5800 5805 5810 5817 5822 5827 5832 5835 5839 5845 5851 5855 5861 5865 5869 5873 5877 5880 5881 5885
5734 5730 5724 5718 5714 5713 5712 5714 5716 5717 5721 5726 5730 5734 5737 5741 5745 5751 5757 5763 5768 5774 5779 5783 5788 5792 5798 5804 5809 5814 5821 5825 5829 5832 5838 5842 5848 5852 5859 5866 5870 5872 5876 5880 5883
5733 5729 5725 5721 5717 5717 5716 5716 5720 5720 5722 5726 5730 5734 5738 5742 5744 5747 5753 5760 5765 5769 5774 5778 5782 5785 5791 5795 5801 5808 5812 5818 5824 5828 5831 5836 5840 5846 5853 5859 5864 5868 5871 5876 5880
5732 5728 5725 5722 5720 5718 5717 5717 5720 5722 5724 5726 5729 5733 5736 5740 5743 5748 5752 5757 5761 5765 5768 5772 5775 5779 5784 5788 5793 5799 5804 5810 5816 5823 5826 5829 5834 5839 5846 5852 5857 5861 5865 5870 5874
5730 5727 5723 5721 5719 5718 5718 5717 5718 5720 5723 5725 5728 5731 5735 5738 5742 5745 5748 5752 5756 5759 5762 5767 5770 5773 5777 5784 5787 5791 5797 5804 5809 5815 5818 5823 5828 5835 5840 5846 5851 5855 5859 5863 5867
5729 5725 5722 5720 5718 5717 5716 5716 5717 5718 5719 5722 5725 5729 5732 5735 5737 5740 5743 5747 5751 5754 5756 5759 5763 5767 5772 5776 5780 5784 5789 5795 5802 5808 5811 5814 5819 5825 5833 5838 5844 5848 5852 5856 5861
5728 5724 5720 5718 5717 5716 5715 5716 5716 5716 5716 5719 5722 5724 5727 5730 5732 5734 5738 5742 5746 5749 5752 5754 5757 5761 5764 5767 5771 5777 5782 5786 5792 5797 5803 5807 5810 5815 5822 5828 5834 5839 5844 5848 5852
5728 5725 5720 5717 5715 5715 5715 5715 5715 5715 5716 5717 5718 5721 5723 5725 5728 5730 5733 5736 5739 5744 5746 5749 5753 5757 5760 5762 5764 5769 5775 5780 5784 5789 5793 5797 5801 5803 5809 5817 5823 5828 5835 5839 5844
5729 5724 5721 5718 5715 5714 5713 5713 5714 5715 5716 5717 5718 5720 5721 5723 5724 5726 5728 5731 5735 5738 5741 5744 5747 5750 5754 5756 5758 5762 5766 5770 5776 5779 5784 5787 5792 5794 5798 5803 5811 5817 5823 5829 5834
Wind_Speed
17 18 19 20 22 23 23 23 21 20 19 19 18 17 18 20 22 21 19 22 22 20 16 13 11 11 10 9 8 6 6 3 3 2 8 10 12 9 6 7 14 14 12 8 14
22 22 20 20 21 23 24 26 26 24 23 22 22 20 19 20 22 23 22 20 22 22 23 20 15 12 11 11 11 12 7 4 2 5 4 10 3 6 6 16 16 15 13 7 12
24 24 25 26 26 25 24 25 27 28 27 26 25 24 22 22 22 21 25 25 21 22 24 22 19 16 14 15 13 15 11 6 4 3 7 7 10 5 13 14 14 17 17 12 14
25 26 25 26 27 27 29 29 27 29 30 29 28 28 26 25 25 22 23 25 26 23 20 21 21 18 18 18 17 19 12 8 4 1 3 3 5 7 14 15 13 16 12 10 14
25 26 26 26 26 28 28 32 32 31 29 31 31 31 30 29 28 25 23 23 26 28 24 22 22 22 22 21 22 23 13 11 11 11 10 9 8 4 8 4 15 14 11 9 9
27 28 27 26 27 28 31 31 35 35 32 31 32 33 34 33 31 30 27 25 25 27 27 27 25 26 28 25 25 23 15 14 14 11 9 8 6 8 4 6 19 15 13 9 10
30 30 31 31 28 30 32 34 37 37 37 33 32 33 35 34 33 31 31 28 27 27 30 32 30 25 22 25 26 18 16 17 15 13 9 13 17 9 9 11 16 20 13 7 8
34 35 37 37 35 32 33 33 39 41 41 38 35 32 34 34 35 33 32 32 30 28 28 30 29 30 28 21 15 15 14 17 18 15 13 14 17 6 3 10 12 20 14 8 9
40 43 45 40 34 32 34 39 40 40 43 41 39 36 33 34 35 34 33 33 35 33 30 28 29 30 28 26 20 17 14 15 16 18 17 16 12 10 13 18 24 15 11 7 10
43 46 47 35 29 35 44 48 48 44 40 41 42 40 36 35 36 36 34 33 35 37 32 28 26 26 25 22 23 22 19 17 18 24 23 21 16 11 14 16 15 14 9 7 12
43 41 34 28 30 31 32 41 45 46 41 40 41 43 40 36 35 35 35 32 33 35 35 31 27 20 22 23 24 26 25 21 21 23 24 24 19 17 16 18 15 12 12 11 15
38 32 28 30 34 35 35 35 28 35 38 40 40 41 39 37 34 35 35 34 31 30 31 33 28 28 27 27 28 29 29 26 24 25 25 22 21 17 15 16 14 13 15 12 14
32 29 30 35 38 41 36 31 25 29 34 37 40 39 37 38 36 35 34 34 32 30 26 26 30 33 31 30 29 28 30 30 29 26 23 22 18 14 14 16 13 15 16 12 13
29 27 30 35 40 37 29 25 23 26 30 35 36 38 37 39 38 35 35 34 34 32 29 26 31 35 35 32 27 25 25 32 34 29 24 20 19 19 16 13 14 16 19 15 14
25 27 32 36 28 15 16 20 21 23 24 29 32 35 37 38 38 37 34 34 33 32 31 29 29 28 32 30 28 25 30 32 35 31 26 23 19 18 19 16 12 11 12 17 16
25 28 28 29 17 8 9 14 18 23 25 23 29 32 35 36 36 35 34 35 34 34 32 33 33 31 27 31 29 33 32 32 33 32 28 26 21 19 20 22 21 14 11 17 19
25 25 23 23 16 9 6 12 18 22 23 24 27 28 29 29 34 37 36 35 34 33 33 33 33 32 31 30 30 33 32 33 34 33 30 26 22 22 23 24 26 21 18 16 25
25 23 20 20 19 14 9 13 21 21 23 23 26 29 28 27 28 31 33 34 34 33 32 33 34 33 33 33 30 30 31 34 36 36 32 28 27 24 23 26 21 16 14 14 25
24 25 21 20 16 16 6 15 21 23 27 26 28 30 31 29 29 32 33 33 34 35 34 34 34 34 34 34 32 32 32 33 35 37 34 33 32 27 27 23 23 23 15 13 19
23 23 22 17 16 6 10 10 18 25 26 27 25 27 28 30 31 32 33 33 34 35 34 33 34 34 35 36 35 36 35 35 35 36 34 36 35 34 31 29 29 26 25 19 20
20 21 19 17 12 1 6 13 15 19 20 22 24 22 22 23 26 27 29 30 31 32 33 31 34 35 36 37 37 37 38 38 38 37 37 35 37 36 34 33 32 31 28 26 23
22 21 16 12 10 3 3 10 14 12 15 20 20 18 17 21 23 21 24 24 23 24 27 27 30 32 34 36 37 39 39 39 39 38 39 38 37 36 34 34 34 33 34 34 32
25 20 16 11 5 1 5 6 6 13 11 12 20 23 20 20 19 22 26 22 22 21 21 23 25 29 33 34 35 36 37 38 39 39 41 41 41 39 38 35 34 35 34 33 34
25 19 14 10 6 2 5 9 10 14 16 14 18 17 19 19 19 20 20 20 22 23 20 23 29 33 35 38 39 38 38 38 38 39 41 44 43 40 36 36 38 36 36 35 34
23 19 15 10 5 3 2 2 3 7 13 13 15 17 20 19 20 23 22 20 20 25 27 31 34 36 40 42 42 43 42 41 41 41 42 44 43 44 42 39 36 39 41 40 38
21 19 15 13 9 3 1 3 5 5 7 8 12 15 18 19 20 18 18 18 20 21 24 28 28 29 33 38 40 42 41 42 43 44 44 46 46 46 46 43 40 37 47 45 44
20 18 15 13 11 7 1 2 3 5 4 6 8 9 10 12 14 16 17 18 18 20 21 22 21 21 24 27 31 34 39 42 44 46 46 48 49 50 49 49 46 43 45 53 50
Wind_Direction
294 288 282 278 275 274 272 267 262 255 247 242 238 236 232 226 225 227 225 226 227 224 217 214 203 195 199 208 219 218 254 49 76 51 102 90 55 133 173 157 149 141 94 125 128
286 285 283 281 280 276 271 268 266 260 252 243 239 236 233 229 226 225 223 223 224 220 213 213 209 204 208 219 225 228 229 218 209 149 101 109 194 68 86 143 141 139 119 143 131
297 291 282 279 276 275 275 272 267 261 257 249 242 239 234 232 230 223 223 223 222 224 220 220 219 212 215 222 225 238 232 215 246 232 130 124 128 106 148 147 166 145 156 151 136
302 298 293 286 277 275 270 270 268 266 259 252 246 240 236 232 233 227 224 222 219 219 218 218 218 214 221 222 226 235 231 217 178 185 101 214 151 124 136 152 197 150 153 145 153
307 303 300 292 283 271 267 261 261 261 259 256 248 243 238 234 233 228 226 222 219 216 212 208 208 204 213 218 221 233 218 230 222 231 266 284 202 359 153 199 199 160 164 142 161
310 307 302 296 283 273 266 260 256 255 253 253 250 244 241 237 231 229 226 222 221 217 212 212 209 206 208 211 219 230 230 236 237 241 283 227 223 160 220 214 171 183 164 162 159
312 309 305 299 284 271 266 257 253 248 249 246 246 244 239 239 235 229 227 224 223 220 214 215 218 216 218 217 223 223 214 224 232 236 247 254 238 216 227 239 201 184 179 184 165
314 310 306 302 293 279 274 262 255 251 245 242 241 239 240 236 236 230 225 221 222 223 221 220 217 216 218 218 211 210 205 211 216 223 224 228 237 214 7 206 189 173 170 185 184
319 316 315 313 301 277 270 257 252 252 248 242 238 235 233 233 234 232 226 221 220 221 222 218 218 219 221 220 216 203 198 200 206 219 219 216 219 187 128 123 145 165 165 196 192
322 319 317 313 292 271 258 251 243 243 243 239 236 235 230 228 232 232 228 224 218 220 219 218 217 220 220 218 218 213 203 204 212 218 213 213 201 175 177 158 154 153 178 197 189
328 323 316 306 302 295 284 274 262 245 237 231 230 232 230 224 227 230 230 227 223 221 218 217 218 217 215 214 211 210 206 205 211 217 209 218 214 189 184 179 177 167 181 197 185
331 321 309 303 304 297 294 276 268 242 232 223 222 223 227 223 221 224 227 229 227 224 219 216 213 214 212 210 210 205 205 205 212 217 218 218 214 201 195 193 196 203 179 193 194
327 317 311 307 303 295 283 268 254 225 223 220 217 215 216 217 213 216 216 224 223 224 220 214 213 215 213 213 213 211 207 206 214 216 220 219 211 203 199 205 206 201 187 185 193
326 321 319 314 310 299 255 244 230 219 213 214 214 212 211 212 213 211 212 217 222 219 215 208 212 214 214 214 214 216 209 212 220 213 218 213 211 211 200 195 193 200 204 181 186
334 333 330 327 321 306 233 221 211 205 204 206 209 208 208 207 211 208 209 214 217 220 216 211 213 215 217 214 212 210 209 214 222 224 215 216 211 212 200 190 184 200 213 203 185
336 337 337 336 325 307 233 212 203 201 192 196 202 203 205 205 208 206 207 209 213 215 212 212 213 213 210 213 206 213 215 219 223 227 222 219 213 209 197 196 184 191 210 208 203
350 344 346 347 343 308 220 196 190 190 187 188 188 195 199 202 207 209 203 207 212 213 212 212 214 213 214 213 205 212 214 221 223 227 228 227 223 219 211 216 198 199 206 190 178
355 352 359 7 351 351 292 192 183 180 172 179 185 188 191 189 198 207 207 206 209 211 210 213 215 214 216 218 213 212 213 221 226 229 230 228 231 223 218 190 184 183 202 196 182
352 355 12 22 349 343 218 166 166 171 168 176 184 188 188 187 199 202 204 205 207 210 211 211 216 216 217 220 216 216 215 219 224 229 228 228 231 226 217 212 204 193 186 189 191
339 349 9 23 13 330 184 166 178 177 174 177 185 185 185 186 193 203 205 206 207 209 210 213 213 215 214 217 218 217 217 219 224 229 229 229 231 232 226 208 207 209 206 199 198
343 345 357 24 36 47 260 164 188 183 184 181 190 195 185 188 190 195 200 207 211 212 213 213 215 215 214 215 216 217 218 219 223 227 231 234 232 234 230 228 218 217 219 214 200
353 344 351 4 34 57 236 188 191 217 200 189 190 186 205 205 198 209 203 202 204 208 212 212 217 220 221 219 222 220 220 223 223 228 231 233 237 236 235 235 235 230 223 223 219
355 344 346 358 17 339 212 179 213 227 241 237 217 201 204 206 210 212 210 208 206 210 216 214 213 218 224 226 229 231 229 227 229 232 235 237 239 238 242 238 237 238 240 233 227
355 347 344 351 1 320 273 238 233 245 250 245 238 224 219 224 229 229 226 214 208 197 190 201 208 215 222 227 228 231 233 234 233 234 237 241 244 241 238 239 239 235 238 238 236
359 355 352 348 2 30 124 160 196 220 233 229 223 227 232 236 236 233 230 223 204 201 207 216 216 220 225 229 231 231 234 236 237 238 238 241 244 244 240 235 233 234 234 235 235
1 358 355 3 358 350 143 144 144 148 159 196 227 232 228 232 236 235 232 226 217 217 223 223 224 224 228 232 237 238 239 239 242 243 242 242 243 246 245 238 234 229 223 227 229
1 1 2 5 7 7 333 192 154 146 156 181 190 199 207 219 229 235 236 234 228 221 216 218 224 219 217 222 230 236 241 243 243 244 245 247 246 247 248 246 240 232 226 222 225